Miscellaneous Local Product
Issued by NWS North Platte, NE

Home | Current Version | Previous Version | Text Only | Print | Product List | Glossary On
Versions: 1 2 3 4 5 6 7 8 9 10 11 12 13 14 15 16 17 18 19 20 21 22 23 24 25 26 27 28 29 30 31 32 33 34 35 36 37 38 39 40 41 42 43 44 45 46 47 48 49 50
000
AXUS43 KLBF 300710
MISLBF


WESTERN AND NORTH CENTRAL NEBRASKA HOURLY WEATHER ROUNDUP
NATIONAL WEATHER SERVICE NORTH PLATTE NE
200 AM CDT MON MAR 30 2015

***STATIONS NOT REPORTING VARIABLES SUCH AS SKY/WEATHER OR
PRESSURE ARE PROVIDED BY THE NEBRASKA DEPARTMENT OF
ROADS...RAWS...AND APRS NETWORKS...AND ARE NOT UNDER
NATIONAL WEATHER SERVICE QUALITY CONTROL***

...OBSERVATIONS IN AND NEAR THE EASTERN PANHANDLE OF NEBRASKA...

CITY           SKY/WX    TMP DP  RH WIND       PRES   REMARKS
PINE RIDGE     PTCLDY    36  25  64 CALM      30.05R
CHADRON        CLEAR     38  26  62 CALM      30.05S
ALLIANCE       PTCLDY    38  25  59 SE7       30.09S WCI  33
SIDNEY         CLEAR     44  23  43 SW17      30.11F
$$

...OBSERVATIONS IN NORTH CENTRAL NEBRASKA...

CITY           SKY/WX    TMP DP  RH WIND       PRES   REMARKS
VALENTINE      PTCLDY    43  24  47 S3        30.07S
THEDFORD       MOCLDY    46  17  32 S7        30.11S
AINSWORTH      MOCLDY    44  21  40 S5        30.09R
O`NEILL        CLOUDY    42  24  48 SW6       30.09R
ORD            PTCLDY    30  19  63 CALM      30.11S
BROKEN BOW     PTCLDY    32  17  54 CALM      30.12S
$$

...OBSERVATIONS IN SOUTHWEST NEBRASKA AND FAR NORTHEAST COLORADO...

CITY           SKY/WX    TMP DP  RH WIND       PRES   REMARKS
WRAY           FAIR      42  21  43 SW5       30.15F
IMPERIAL         N/A     44  19  36 S12       30.14F
OGALLALA       CLEAR     41  19  42 SW7       30.11F
NORTH PLATTE   CLEAR     40  18  41 S6        30.13S
MCCOOK         CLEAR     43  16  33 S9        30.15F
LEXINGTON      PTCLDY    42  18  38 S8        30.14F
$$

...NORTH PLATTE AREA...

CITY           SKY/WX    TMP DP  RH WIND       PRES   REMARKS
AIRPORT        CLEAR     40  18  41 S6        30.13S
$$

...SOME WEATHER OBSERVATIONS FROM AROUND THE REGION...

CITY           SKY/WX    TMP DP  RH WIND       PRES   REMARKS
DENVER         PTCLDY    48  25  40 SW10      30.15F
LARAMIE        PTCLDY    35  15  44 SW5       30.19F WCI  31
CHEYENNE       PTCLDY    42  23  46 SW10      30.15F
SCOTTSBLUFF    PTCLDY    43  24  47 E5        30.09S
RAPID CITY     CLEAR     44  27  51 SW3       30.01F
PIERRE         MOCLDY    46  29  51 CALM      29.98F
WINNER         FAIR      48  21  34 SW13      30.04S
SIOUX FALLS    MOCLDY    35  22  58 CALM      30.04S
OMAHA          PTCLDY    40  28  62 SE6       30.11S
GRAND ISLAND   CLEAR     39  20  46 SW6       30.15R WCI  35
KANSAS CITY    CLEAR     46  33  60 W7        30.17R
WICHITA        CLEAR     46  31  55 E3        30.20S
HAYS           CLEAR     37  14  38 W5        30.21S WCI  34
LIBERAL        PTCLDY    45  27  49 SE6       30.23F
GOODLAND       MOCLDY    43  22  43 S14       30.18F
$$



USA.gov is the U.S. government's official web portal to all federal, state and local government web resources and services.